RH
76 86 92 99 99 100 99 96 80 69 60 65 71 70 67 68 68 76 73 74 76 70 68 65 66 65 70 78 75 87 99 98 93 83 78 70 69 68 68 66 65 65 70
77 83 97 100 100 100 97 94 87 72 56 58 62 66 70 72 71 74 72 74 74 74 66 64 67 71 74 79 88 99 100 100 95 88 88 86 80 73 72 74 73 76 78
79 84 99 100 100 100 98 92 86 84 84 66 66 67 67 63 65 70 60 65 67 64 66 67 75 72 83 86 91 97 97 97 99 98 88 84 87 84 85 84 83 81 80
74 81 92 99 100 100 100 98 89 94 86 72 69 69 65 56 62 73 58 58 62 61 61 63 64 66 76 83 87 92 93 94 97 96 95 92 90 96 92 96 100 91 91
72 78 84 93 100 100 99 100 100 100 96 83 80 84 86 86 92 65 61 63 60 62 64 63 62 66 64 73 82 86 81 88 96 94 92 90 93 100 98 95 100 98 98
67 70 77 90 99 100 100 99 100 100 100 100 95 99 100 99 99 93 89 79 78 76 71 70 69 68 70 74 82 86 84 92 96 94 91 90 83 88 92 93 98 97 94
65 63 66 78 93 100 100 99 100 99 100 100 100 98 97 97 98 90 87 90 94 93 90 81 72 69 76 80 82 88 88 92 97 97 97 96 91 86 89 99 99 97 92
63 62 63 65 74 89 99 100 100 100 99 98 98 100 100 99 99 89 80 78 82 95 100 99 100 99 98 94 100 100 100 100 98 99 100 100 100 100 100 100 100 100 100
61 60 64 64 67 72 84 91 95 98 97 100 100 98 98 99 100 96 75 79 99 100 100 100 100 100 99 99 98 100 100 100 100 100 100 100 100 100 99 100 100 97 100
62 60 57 62 68 70 70 74 82 86 84 89 97 99 98 99 100 99 100 100 100 100 100 100 99 98 100 100 100 100 100 100 99 100 97 97 91 86 84 90 98 99 100
62 57 53 62 66 73 71 71 74 74 72 76 82 86 90 99 100 100 100 98 100 100 100 100 100 99 100 100 96 95 99 94 92 93 91 88 82 80 79 78 85 93 99
60 56 57 56 62 67 70 72 73 74 75 80 82 84 87 92 99 100 99 99 99 99 99 100 99 97 94 96 98 97 94 92 86 87 86 88 89 86 90 88 83 85 87
60 56 59 56 59 65 69 75 78 80 83 86 89 92 89 86 86 96 98 100 99 97 99 100 100 99 99 99 100 96 75 80 87 90 94 92 93 90 88 88 85 84 84
59 57 57 64 62 64 72 81 84 82 85 90 94 92 87 85 87 86 80 81 94 95 97 97 97 99 99 100 98 92 97 99 97 95 96 98 98 98 96 93 90 86 90
58 59 57 60 67 78 81 80 87 87 89 86 87 91 86 84 84 89 90 86 86 89 83 87 92 96 97 97 98 98 100 99 99 96 96 96 96 97 94 95 92 96 96
58 59 57 59 63 72 80 89 91 89 89 86 85 87 87 85 86 89 92 94 96 92 89 94 95 96 96 96 96 97 98 98 96 99 98 96 97 97 96 96 96 98 93
56 56 60 61 64 68 75 80 87 84 84 89 90 87 86 87 90 90 95 94 95 92 94 95 95 97 98 99 100 100 99 99 95 92 97 97 97 98 99 98 99 98 96
55 57 60 63 64 68 69 70 72 76 75 75 89 92 86 88 91 95 96 93 94 96 97 94 94 96 98 99 99 99 100 93 97 97 99 97 98 99 99 97 98 100 95
57 59 64 65 66 68 67 69 71 73 76 76 76 79 90 93 95 97 96 92 95 94 94 96 97 98 99 99 96 94 97 100 98 97 98 96 96 99 98 100 100 97 94
58 58 62 68 72 77 73 73 73 75 76 78 77 80 82 86 81 88 92 94 93 93 95 96 99 98 98 97 96 96 95 96 97 100 99 99 95 97 100 100 100 100 99
62 60 77 74 72 75 76 74 73 75 77 79 76 85 89 77 83 90 95 96 95 98 98 98 96 99 100 99 96 95 97 97 97 100 100 100 100 100 100 100 100 100 100
69 66 66 82 74 77 80 77 75 76 77 79 79 82 90 84 84 89 94 98 100 100 100 98 99 100 100 100 97 96 99 100 100 100 100 100 100 99 100 100 100 100 100
75 74 72 81 85 82 84 83 79 80 80 81 81 81 92 86 86 88 95 99 100 100 100 100 100 100 100 96 92 94 100 100 100 100 98 100 100 100 100 100 100 100 100
77 76 75 78 84 82 84 86 85 81 80 81 83 86 86 88 90 90 93 96 100 100 100 100 100 100 100 93 87 88 96 98 100 100 93 100 100 100 100 100 100 100 100
83 79 78 80 82 85 82 89 86 82 82 82 86 88 89 90 90 93 96 100 100 100 94 92 95 96 94 91 88 87 91 99 93 91 80 91 99 99 100 100 100 100 100
86 86 82 81 83 82 84 94 95 88 83 85 86 88 87 86 87 92 95 100 99 95 90 90 94 94 90 89 92 90 92 99 95 80 79 82 84 96 100 100 96 97 97
Wind_Speed
25 25 30 29 27 25 24 23 24 26 26 25 26 27 30 29 29 28 32 31 31 34 34 33 33 34 30 31 32 28 27 26 13 18 22 24 29 32 33 34 35 38 39
25 27 28 28 26 23 21 20 17 20 25 28 28 26 26 23 23 28 31 29 31 31 33 31 31 31 33 31 29 26 26 27 24 19 23 24 28 34 36 35 34 36 38
23 25 27 25 24 23 21 19 18 17 19 22 25 24 24 20 22 25 30 30 31 31 30 31 32 31 27 25 29 27 28 26 26 24 19 22 26 31 34 36 36 38 40
24 23 25 26 24 24 23 17 14 15 17 15 18 19 18 6 22 25 27 28 29 30 31 32 30 30 30 30 26 27 26 24 23 24 21 20 22 25 31 23 25 34 37
23 22 23 26 25 23 21 15 9 8 7 6 7 6 5 10 12 17 18 21 25 28 28 30 29 29 28 30 30 30 25 23 19 19 17 18 18 14 18 23 25 23 27
20 22 23 24 26 24 20 15 12 13 12 9 7 6 6 4 11 12 14 17 20 23 25 27 26 27 28 28 29 32 31 26 22 20 19 17 21 23 25 24 22 17 10
16 18 20 21 22 22 19 17 16 16 14 16 15 12 11 12 18 15 15 16 16 17 21 25 25 24 25 25 25 28 31 34 35 28 24 23 23 25 26 25 25 22 25
14 15 17 18 18 20 19 18 17 18 18 16 16 15 14 16 21 17 18 16 14 13 14 12 14 16 18 19 18 21 20 19 14 31 27 14 11 13 20 23 17 18 25
12 14 14 13 13 13 15 17 16 16 16 17 17 18 19 22 26 19 17 16 13 8 7 6 7 7 9 15 16 12 10 11 12 13 14 14 11 7 4 7 3 2 2
9 11 12 10 10 9 10 9 10 14 15 13 14 17 19 23 26 19 10 12 18 21 22 21 18 14 11 12 15 16 18 10 8 9 10 11 9 10 9 10 8 8 3
6 8 10 9 10 7 6 7 8 8 9 10 11 14 15 18 22 21 16 22 18 20 20 21 19 18 20 20 19 18 15 11 12 11 11 10 10 11 13 11 9 6 3
5 5 6 8 9 9 6 7 8 7 8 10 11 14 17 17 18 20 21 20 17 21 20 19 19 18 18 18 20 17 12 11 12 10 10 12 12 13 11 10 8 4 3
5 4 3 4 5 7 9 10 10 10 10 10 11 12 14 18 18 15 16 17 18 21 19 17 17 17 17 20 19 17 16 15 13 13 11 11 11 11 11 12 12 10 10
7 6 4 3 1 4 6 8 11 11 9 10 9 11 12 15 16 15 13 12 12 16 16 17 17 17 16 15 17 19 18 15 13 11 9 8 8 9 10 12 13 14 11
10 8 7 5 4 1 3 6 8 9 8 7 7 9 8 9 11 10 11 10 12 12 16 16 16 15 13 13 14 14 14 15 13 11 10 9 9 9 10 11 12 11 9
14 13 11 10 9 8 6 4 3 5 5 6 5 6 7 7 6 8 8 9 9 8 14 13 12 11 11 10 9 9 10 11 11 10 8 9 10 12 12 10 11 9 10
18 15 13 12 11 10 10 9 7 5 2 4 4 4 5 6 5 4 7 9 8 8 12 10 10 9 8 8 8 8 8 8 10 11 10 9 10 9 10 10 10 9 9
19 17 17 16 14 13 11 10 8 8 7 5 1 2 3 4 5 3 4 5 9 10 8 7 7 7 7 7 7 8 7 6 9 9 8 8 10 11 10 12 13 14 15
21 20 19 18 16 14 13 11 10 9 8 6 4 3 4 4 5 6 7 7 8 6 5 5 5 5 5 4 5 7 9 8 10 12 13 12 13 14 14 15 16 17 19
23 21 20 19 17 16 15 14 13 12 11 9 6 4 4 3 2 4 5 7 5 4 3 3 3 3 3 7 8 9 11 12 14 16 17 15 15 16 15 16 17 17 18
25 24 19 20 21 21 20 19 17 14 14 12 10 6 4 6 4 3 3 4 3 3 2 2 1 1 3 6 7 10 13 15 16 19 20 21 18 17 17 16 18 18 18
25 24 24 23 23 22 21 19 18 17 16 15 12 9 8 8 8 7 6 5 3 2 2 1 0 1 3 5 8 10 14 18 20 22 21 21 19 18 18 17 17 17 18
22 21 21 19 20 18 17 19 19 19 18 16 15 14 12 9 9 9 8 6 5 4 3 2 2 2 3 3 4 10 15 18 20 20 21 20 19 19 18 19 18 16 16
21 22 22 20 19 20 19 20 20 18 18 17 16 15 14 12 10 9 8 6 5 4 3 4 4 2 2 3 4 7 12 17 17 20 18 17 17 17 18 17 17 18 17
20 21 21 19 20 19 20 19 21 21 20 19 19 17 14 12 12 11 8 6 5 3 2 2 1 1 2 2 5 7 10 14 15 18 16 15 14 15 16 16 17 16 14
21 21 21 20 21 21 22 21 21 22 23 22 19 18 16 14 13 11 9 8 5 3 2 2 3 3 3 1 5 7 10 12 14 16 17 15 15 15 15 17 15 14 13
Wind_Direction
326 319 320 317 314 312 309 310 286 282 284 277 271 266 269 269 270 256 246 241 240 242 241 242 246 247 244 242 243 236 228 228 240 249 248 241 250 259 264 261 262 262 261
329 323 318 317 318 314 314 310 304 288 283 280 277 274 272 263 274 262 248 242 241 239 244 243 243 247 244 241 234 222 221 223 230 247 251 245 253 265 266 262 263 260 259
326 328 325 324 323 320 320 312 304 299 293 281 276 270 268 259 271 269 252 252 247 247 244 244 241 240 234 236 237 234 235 237 240 237 246 256 261 259 263 262 265 266 266
344 331 331 330 333 333 328 315 309 312 302 286 287 271 249 269 276 282 252 243 243 242 243 245 245 241 236 229 230 234 234 235 238 243 242 251 251 253 254 254 252 257 260
349 342 339 339 343 353 354 342 331 356 1 311 294 266 266 243 249 266 274 264 252 246 243 244 243 243 241 238 231 233 243 243 240 245 244 242 243 226 239 240 242 250 253
354 349 352 352 356 357 6 5 6 15 27 27 25 360 1 344 305 289 276 268 259 252 252 246 244 247 248 248 249 245 244 233 236 234 239 241 246 244 246 241 247 249 263
354 359 8 2 1 3 11 19 16 25 25 31 30 20 8 354 343 311 286 270 266 262 262 257 252 250 253 255 253 250 251 253 249 239 238 239 243 242 240 236 242 242 255
354 357 7 16 11 12 18 21 30 38 43 37 32 29 24 8 353 324 296 283 275 268 265 260 258 251 251 252 250 246 248 249 268 253 248 236 243 234 235 233 237 258 254
352 351 359 15 21 17 19 23 31 40 42 42 41 35 30 21 4 342 301 272 235 208 193 182 183 205 242 243 232 224 173 136 110 115 127 111 113 106 157 200 76 95 297
342 344 352 4 14 23 24 20 19 36 38 31 34 38 35 25 18 21 71 129 114 102 102 91 79 76 94 146 147 135 101 90 108 108 89 73 64 47 51 60 57 67 1
327 335 353 3 12 10 30 42 40 38 44 42 35 30 32 31 25 36 66 84 87 89 83 76 73 71 68 73 99 92 90 103 92 87 84 73 58 48 48 52 47 46 37
311 326 344 3 14 19 25 45 52 54 44 40 47 45 37 31 33 46 57 73 91 83 84 88 80 77 72 70 78 88 104 105 106 98 78 56 47 36 38 38 40 36 11
286 290 313 5 26 36 47 51 50 48 50 41 35 34 31 44 46 45 61 75 84 89 87 86 83 77 77 75 70 76 86 89 89 74 60 49 45 40 40 32 30 19 359
249 254 247 238 69 70 68 66 62 52 49 44 29 27 22 28 38 49 66 76 88 104 101 91 88 82 78 76 73 73 74 70 73 67 45 36 31 22 21 14 8 3 350
235 237 235 233 234 190 80 74 79 66 56 64 54 41 30 21 27 34 47 73 93 96 100 94 81 72 68 62 59 55 47 42 45 44 33 17 12 8 4 355 350 346 337
229 225 223 222 220 216 197 162 99 76 68 69 68 62 61 41 35 40 50 68 84 103 94 84 79 73 69 61 50 43 39 33 28 16 13 9 357 351 347 344 343 326 325
231 229 226 224 222 215 214 217 208 186 124 81 67 57 57 53 56 75 69 66 67 84 88 87 84 77 71 61 49 35 23 20 21 14 6 358 347 331 331 337 335 330 327
231 230 224 224 227 226 222 221 218 220 216 207 135 83 96 74 60 76 119 109 83 72 72 72 76 77 67 53 40 29 28 33 3 7 0 351 344 341 337 338 342 338 337
227 226 225 225 223 227 226 223 224 224 226 225 225 195 146 118 101 91 94 107 99 90 83 78 67 52 48 43 39 33 20 10 358 9 4 0 351 345 343 340 334 339 331
234 233 227 226 223 220 221 225 224 224 224 219 221 227 202 203 157 92 99 104 100 91 81 78 59 45 32 12 16 14 17 14 8 3 0 1 354 351 336 336 331 325 319
236 235 223 227 227 225 225 225 228 222 219 219 221 222 221 207 179 155 127 114 122 121 115 99 58 23 335 358 11 9 8 6 6 1 358 360 346 335 336 330 325 322 314
237 232 222 220 229 227 229 230 225 223 224 219 213 207 205 204 195 184 175 166 153 158 170 173 246 311 319 349 357 2 4 1 0 359 353 348 340 339 335 330 326 322 320
236 230 226 223 225 231 222 229 225 226 224 222 216 213 212 218 209 199 185 176 176 184 189 198 229 288 316 12 360 353 359 1 358 355 346 338 342 338 334 332 327 325 324
236 230 224 217 215 220 219 223 229 229 228 223 217 219 219 219 216 212 210 202 193 191 210 213 218 286 353 30 21 359 0 3 358 347 341 341 348 349 343 334 332 332 327
236 233 225 216 213 212 216 220 229 226 228 224 220 220 217 216 216 215 215 206 210 221 241 246 265 320 354 9 7 354 5 4 355 352 352 349 349 355 352 341 343 345 343
239 237 231 223 219 215 211 210 222 230 230 229 225 221 214 215 219 219 219 214 209 233 230 256 283 318 350 291 356 10 354 5 2 360 360 358 358 359 359 353 359 360 356